Year,Month,Day,Hour,Minute,Value (Times are PST for temperature in C)
2021,12,02,00,00,8.10
2021,12,02,00,01,8.00
2021,12,02,00,02,8.00
2021,12,02,00,03,8.00
2021,12,02,00,04,8.00
2021,12,02,00,05,8.00
2021,12,02,00,06,8.00
2021,12,02,00,07,8.00
2021,12,02,00,08,8.00
2021,12,02,00,09,7.90
2021,12,02,00,10,7.90
2021,12,02,00,11,7.90
2021,12,02,00,12,7.90
2021,12,02,00,13,7.90
2021,12,02,00,14,7.90
2021,12,02,00,15,7.90
2021,12,02,00,16,7.80
2021,12,02,00,17,7.80
2021,12,02,00,18,7.80
2021,12,02,00,19,7.80
2021,12,02,00,20,7.80
2021,12,02,00,21,7.80
2021,12,02,00,22,7.80
2021,12,02,00,23,7.80
2021,12,02,00,24,7.80
2021,12,02,00,25,7.70
2021,12,02,00,26,7.70
2021,12,02,00,27,7.70
2021,12,02,00,28,7.70
2021,12,02,00,29,7.70
2021,12,02,00,30,7.70
2021,12,02,00,31,7.70
2021,12,02,00,32,7.60
2021,12,02,00,33,7.60
2021,12,02,00,34,7.60
2021,12,02,00,35,7.60
2021,12,02,00,36,7.60
2021,12,02,00,37,7.60
2021,12,02,00,38,7.60
2021,12,02,00,39,7.60
2021,12,02,00,40,7.60
2021,12,02,00,41,7.60
2021,12,02,00,42,7.60
2021,12,02,00,43,7.60
2021,12,02,00,44,7.60
2021,12,02,00,45,7.60
2021,12,02,00,46,7.60
2021,12,02,00,47,7.50
2021,12,02,00,48,7.50
2021,12,02,00,49,7.50
2021,12,02,00,50,7.50
2021,12,02,00,51,7.50
2021,12,02,00,52,7.50
2021,12,02,00,53,7.50
2021,12,02,00,54,7.50
2021,12,02,00,55,7.50
2021,12,02,00,56,7.50
2021,12,02,00,57,7.50
2021,12,02,00,58,7.50
2021,12,02,00,59,7.50
2021,12,02,01,00,7.50
2021,12,02,01,01,7.50
2021,12,02,01,02,7.40
2021,12,02,01,03,7.40
2021,12,02,01,04,7.40
2021,12,02,01,05,7.40
2021,12,02,01,06,7.40
2021,12,02,01,07,7.40
2021,12,02,01,08,7.40
2021,12,02,01,09,7.40
2021,12,02,01,10,7.40
2021,12,02,01,11,7.30
2021,12,02,01,12,7.30
2021,12,02,01,13,7.30
2021,12,02,01,14,7.30
2021,12,02,01,15,7.30
2021,12,02,01,16,7.30
2021,12,02,01,17,7.30
2021,12,02,01,18,7.20
2021,12,02,01,19,7.20
2021,12,02,01,20,7.20
2021,12,02,01,21,7.20
2021,12,02,01,22,7.20
2021,12,02,01,23,7.20
2021,12,02,01,24,7.20
2021,12,02,01,25,7.10
2021,12,02,01,26,7.10
2021,12,02,01,27,7.10
2021,12,02,01,28,7.10
2021,12,02,01,29,7.10
2021,12,02,01,30,7.10
2021,12,02,01,31,7.10
2021,12,02,01,32,7.00
2021,12,02,01,33,7.00
2021,12,02,01,34,7.00
2021,12,02,01,35,7.00
2021,12,02,01,36,7.00
2021,12,02,01,37,7.00
2021,12,02,01,38,7.00
2021,12,02,01,39,7.00
2021,12,02,01,40,7.00
2021,12,02,01,41,7.00
2021,12,02,01,42,6.90
2021,12,02,01,43,7.00
2021,12,02,01,44,6.90
2021,12,02,01,45,6.90
2021,12,02,01,46,6.90
2021,12,02,01,47,6.90
2021,12,02,01,48,6.90
2021,12,02,01,49,6.90
2021,12,02,01,50,6.90
2021,12,02,01,51,6.90
2021,12,02,01,52,6.90
2021,12,02,01,53,6.90
2021,12,02,01,54,7.00
2021,12,02,01,55,7.00
2021,12,02,01,56,7.00
2021,12,02,01,57,7.00
2021,12,02,01,58,7.00
2021,12,02,01,59,7.00
2021,12,02,02,00,7.00
2021,12,02,02,01,7.00
2021,12,02,02,02,7.00
2021,12,02,02,03,7.00
2021,12,02,02,04,7.00
2021,12,02,02,05,7.00
2021,12,02,02,06,7.00
2021,12,02,02,07,7.00
2021,12,02,02,08,7.00
2021,12,02,02,09,7.00
2021,12,02,02,10,7.00
2021,12,02,02,11,7.10
2021,12,02,02,12,7.10
2021,12,02,02,13,7.10
2021,12,02,02,14,7.10
2021,12,02,02,15,7.10
2021,12,02,02,16,7.10
2021,12,02,02,17,7.10
2021,12,02,02,18,7.10
2021,12,02,02,19,7.10
2021,12,02,02,20,7.10
2021,12,02,02,21,7.10
2021,12,02,02,22,7.10
2021,12,02,02,23,7.10
2021,12,02,02,24,7.10
2021,12,02,02,25,7.10
2021,12,02,02,26,7.10
2021,12,02,02,27,7.10
2021,12,02,02,28,7.10
2021,12,02,02,29,7.10
2021,12,02,02,30,7.10
2021,12,02,02,31,7.10
2021,12,02,02,32,7.10
2021,12,02,02,33,7.10
2021,12,02,02,34,7.10
2021,12,02,02,35,7.10
2021,12,02,02,36,7.10
2021,12,02,02,37,7.10
2021,12,02,02,38,7.10
2021,12,02,02,39,7.10
2021,12,02,02,40,7.10
2021,12,02,02,41,7.10
2021,12,02,02,42,7.10
2021,12,02,02,43,7.10
2021,12,02,02,44,7.10
2021,12,02,02,45,7.10
2021,12,02,02,46,7.10
2021,12,02,02,47,7.10
2021,12,02,02,48,7.10
2021,12,02,02,49,7.10
2021,12,02,02,50,7.10
2021,12,02,02,51,7.10
2021,12,02,02,52,7.10
2021,12,02,02,53,7.10
2021,12,02,02,54,7.10
2021,12,02,02,55,7.10
2021,12,02,02,56,7.10
2021,12,02,02,57,7.10
2021,12,02,02,58,7.20
2021,12,02,02,59,7.20
2021,12,02,03,00,7.20
2021,12,02,03,01,7.20
2021,12,02,03,02,7.20
2021,12,02,03,03,7.20
2021,12,02,03,04,7.20
2021,12,02,03,05,7.20
2021,12,02,03,06,7.20
2021,12,02,03,07,7.20
2021,12,02,03,08,7.20
2021,12,02,03,09,7.20
2021,12,02,03,10,7.20
2021,12,02,03,11,7.20
2021,12,02,03,12,7.20
2021,12,02,03,13,7.20
2021,12,02,03,14,7.20
2021,12,02,03,15,7.20
2021,12,02,03,16,7.20
2021,12,02,03,17,7.20
2021,12,02,03,18,7.20
2021,12,02,03,19,7.20
2021,12,02,03,20,7.20
2021,12,02,03,21,7.20
2021,12,02,03,22,7.20
2021,12,02,03,23,7.20
2021,12,02,03,24,7.20
2021,12,02,03,25,7.20
2021,12,02,03,26,7.20
2021,12,02,03,27,7.20
2021,12,02,03,28,7.10
2021,12,02,03,29,7.10
2021,12,02,03,30,7.10
2021,12,02,03,31,7.10
2021,12,02,03,32,7.10
2021,12,02,03,33,7.10
2021,12,02,03,34,7.10
2021,12,02,03,35,7.10
2021,12,02,03,36,7.10
2021,12,02,03,37,7.10
2021,12,02,03,38,7.10
2021,12,02,03,39,7.10
2021,12,02,03,40,7.10
2021,12,02,03,41,7.10
2021,12,02,03,42,7.10
2021,12,02,03,43,7.10
2021,12,02,03,44,7.10
2021,12,02,03,45,7.10
2021,12,02,03,46,7.10
2021,12,02,03,47,7.10
2021,12,02,03,48,7.00
2021,12,02,03,49,7.00
2021,12,02,03,50,7.00
2021,12,02,03,51,7.00
2021,12,02,03,52,7.00
2021,12,02,03,53,6.90
2021,12,02,03,54,6.90
2021,12,02,03,55,6.90
2021,12,02,03,56,6.90
2021,12,02,03,57,6.90
2021,12,02,03,58,6.90
2021,12,02,03,59,6.80
2021,12,02,04,00,6.80
2021,12,02,04,01,6.80
2021,12,02,04,02,6.80
2021,12,02,04,03,6.80
2021,12,02,04,04,6.80
2021,12,02,04,05,6.80
2021,12,02,04,06,6.80
2021,12,02,04,07,6.80
2021,12,02,04,08,6.80
2021,12,02,04,09,6.70
2021,12,02,04,10,6.70
2021,12,02,04,11,6.70
2021,12,02,04,12,6.70
2021,12,02,04,13,6.70
2021,12,02,04,14,6.70
2021,12,02,04,15,6.70
2021,12,02,04,16,6.70
2021,12,02,04,17,6.60
2021,12,02,04,18,6.60
2021,12,02,04,19,6.60
2021,12,02,04,20,6.60
2021,12,02,04,21,6.60
2021,12,02,04,22,6.60
2021,12,02,04,23,6.60
2021,12,02,04,24,6.60
2021,12,02,04,25,6.60
2021,12,02,04,26,6.50
2021,12,02,04,27,6.50
2021,12,02,04,28,6.50
2021,12,02,04,29,6.50
2021,12,02,04,30,6.50
2021,12,02,04,31,6.50
2021,12,02,04,32,6.50
2021,12,02,04,33,6.40
2021,12,02,04,34,6.40
2021,12,02,04,35,6.40
2021,12,02,04,36,6.40
2021,12,02,04,37,6.40
2021,12,02,04,38,6.40
2021,12,02,04,39,6.40
2021,12,02,04,40,6.50
2021,12,02,04,41,6.50
2021,12,02,04,42,6.50
2021,12,02,04,43,6.50
2021,12,02,04,44,6.50
2021,12,02,04,45,6.50
2021,12,02,04,46,6.50
2021,12,02,04,47,6.50
2021,12,02,04,48,6.50
2021,12,02,04,49,6.50
2021,12,02,04,50,6.50
2021,12,02,04,51,6.50
2021,12,02,04,52,6.50
2021,12,02,04,53,6.50
2021,12,02,04,54,6.50
2021,12,02,04,55,6.50
2021,12,02,04,56,6.50
2021,12,02,04,57,6.50
2021,12,02,04,58,6.50
2021,12,02,04,59,6.50
2021,12,02,05,00,6.40
2021,12,02,05,01,6.40
2021,12,02,05,02,6.40
2021,12,02,05,03,6.40
2021,12,02,05,04,6.40
2021,12,02,05,05,6.40
2021,12,02,05,06,6.40
2021,12,02,05,07,6.40
2021,12,02,05,08,6.30
2021,12,02,05,09,6.30
2021,12,02,05,10,6.30
2021,12,02,05,11,6.30
2021,12,02,05,12,6.30
2021,12,02,05,13,6.30
2021,12,02,05,14,6.30
2021,12,02,05,15,6.30
2021,12,02,05,16,6.30
2021,12,02,05,17,6.30
2021,12,02,05,18,6.30
2021,12,02,05,19,6.30
2021,12,02,05,20,6.20
2021,12,02,05,21,6.20
2021,12,02,05,22,6.20
2021,12,02,05,23,6.20
2021,12,02,05,24,6.20
2021,12,02,05,25,6.20
2021,12,02,05,26,6.20
2021,12,02,05,27,6.20
2021,12,02,05,28,6.20
2021,12,02,05,29,6.20
2021,12,02,05,30,6.10
2021,12,02,05,31,6.10
2021,12,02,05,32,6.10
2021,12,02,05,33,6.10
2021,12,02,05,34,6.10
2021,12,02,05,35,6.00
2021,12,02,05,36,6.00
2021,12,02,05,37,6.00
2021,12,02,05,38,6.00
2021,12,02,05,39,5.90
2021,12,02,05,40,5.90
2021,12,02,05,41,5.90
2021,12,02,05,42,5.90
2021,12,02,05,43,5.90
2021,12,02,05,44,5.90
2021,12,02,05,45,5.90
2021,12,02,05,46,5.90
2021,12,02,05,47,5.90
2021,12,02,05,48,5.80
2021,12,02,05,49,5.80
2021,12,02,05,50,5.80
2021,12,02,05,51,5.80
2021,12,02,05,52,5.80
2021,12,02,05,53,5.80
2021,12,02,05,54,5.80
2021,12,02,05,55,5.80
2021,12,02,05,56,5.80
2021,12,02,05,57,5.80
2021,12,02,05,58,5.80
2021,12,02,05,59,5.80
2021,12,02,06,00,5.90
2021,12,02,06,01,5.90
2021,12,02,06,02,5.90
2021,12,02,06,03,5.90
2021,12,02,06,04,5.90
2021,12,02,06,05,5.90
2021,12,02,06,06,5.90
2021,12,02,06,07,5.90
2021,12,02,06,08,5.90
2021,12,02,06,09,5.90
2021,12,02,06,10,6.00
2021,12,02,06,11,6.00
2021,12,02,06,12,6.00
2021,12,02,06,13,6.00
2021,12,02,06,14,6.00
2021,12,02,06,15,6.00
2021,12,02,06,16,6.00
2021,12,02,06,17,6.00
2021,12,02,06,18,6.10
2021,12,02,06,19,6.10
2021,12,02,06,20,6.10
2021,12,02,06,21,6.10
2021,12,02,06,22,6.10
2021,12,02,06,23,6.10
2021,12,02,06,24,6.10
2021,12,02,06,25,6.10
2021,12,02,06,26,6.10
2021,12,02,06,27,6.10
2021,12,02,06,28,6.10
2021,12,02,06,29,6.10
2021,12,02,06,30,6.10
2021,12,02,06,31,6.10
2021,12,02,06,32,6.10
2021,12,02,06,33,6.10
2021,12,02,06,34,6.10
2021,12,02,06,35,6.10
2021,12,02,06,36,6.10
2021,12,02,06,37,6.10
2021,12,02,06,38,6.10
2021,12,02,06,39,6.10
2021,12,02,06,40,6.10
2021,12,02,06,41,6.10
2021,12,02,06,42,6.10
2021,12,02,06,43,6.10
2021,12,02,06,44,6.10
2021,12,02,06,45,6.00
2021,12,02,06,46,6.10
2021,12,02,06,47,6.00
2021,12,02,06,48,6.00
2021,12,02,06,49,6.00
2021,12,02,06,50,6.00
2021,12,02,06,51,6.00
2021,12,02,06,52,6.00
2021,12,02,06,53,6.00
2021,12,02,06,54,6.00
2021,12,02,06,55,6.00
2021,12,02,06,56,6.00
2021,12,02,06,57,6.00
2021,12,02,06,58,6.00
2021,12,02,06,59,6.00
2021,12,02,07,00,6.00
2021,12,02,07,01,6.00
2021,12,02,07,02,6.00
2021,12,02,07,03,6.00
2021,12,02,07,04,6.00
2021,12,02,07,05,6.00
2021,12,02,07,06,6.00
2021,12,02,07,07,6.00
2021,12,02,07,08,6.00
2021,12,02,07,09,6.00
2021,12,02,07,10,6.00
2021,12,02,07,11,6.00
2021,12,02,07,12,6.00
2021,12,02,07,13,6.00
2021,12,02,07,14,6.00
2021,12,02,07,15,6.00
2021,12,02,07,16,5.90
2021,12,02,07,17,5.90
2021,12,02,07,18,5.90
2021,12,02,07,19,5.90
2021,12,02,07,20,5.90
2021,12,02,07,21,5.90
2021,12,02,07,22,5.90
2021,12,02,07,23,5.90
2021,12,02,07,24,5.90
2021,12,02,07,25,5.90
2021,12,02,07,26,5.90
2021,12,02,07,27,5.90
2021,12,02,07,28,5.90
2021,12,02,07,29,5.90
2021,12,02,07,30,5.90
2021,12,02,07,31,5.90
2021,12,02,07,32,5.90
2021,12,02,07,33,5.90
2021,12,02,07,34,5.90
2021,12,02,07,35,5.90
2021,12,02,07,36,5.90
2021,12,02,07,37,5.90
2021,12,02,07,38,5.90
2021,12,02,07,39,5.90
2021,12,02,07,40,5.90
2021,12,02,07,41,5.90
2021,12,02,07,42,5.90
2021,12,02,07,43,5.90
2021,12,02,07,44,5.90
2021,12,02,07,45,5.90
2021,12,02,07,46,5.90
2021,12,02,07,47,5.90
2021,12,02,07,48,5.90
2021,12,02,07,49,5.90
2021,12,02,07,50,5.90
2021,12,02,07,51,5.90
2021,12,02,07,52,5.90
2021,12,02,07,53,5.90
2021,12,02,07,54,5.90
2021,12,02,07,55,5.90
2021,12,02,07,56,5.90
2021,12,02,07,57,5.90
2021,12,02,07,58,5.90
2021,12,02,07,59,5.90
2021,12,02,08,00,5.90
2021,12,02,08,01,5.90
2021,12,02,08,02,5.90
2021,12,02,08,03,5.90
2021,12,02,08,04,5.90
2021,12,02,08,05,5.90
2021,12,02,08,06,5.80
2021,12,02,08,07,5.80
2021,12,02,08,08,5.90
2021,12,02,08,09,5.90
2021,12,02,08,10,5.90
2021,12,02,08,11,5.90
2021,12,02,08,12,5.90
2021,12,02,08,13,5.90
2021,12,02,08,14,5.90
2021,12,02,08,15,5.90
2021,12,02,08,16,5.80
2021,12,02,08,17,5.80
2021,12,02,08,18,5.80
2021,12,02,08,19,5.80
2021,12,02,08,20,5.80
2021,12,02,08,21,5.80
2021,12,02,08,22,5.80
2021,12,02,08,23,5.80
2021,12,02,08,24,5.80
2021,12,02,08,25,5.80
2021,12,02,08,26,5.80
2021,12,02,08,27,5.80
2021,12,02,08,28,5.80
2021,12,02,08,29,5.80
2021,12,02,08,30,5.80
2021,12,02,08,31,5.80
2021,12,02,08,32,5.80
2021,12,02,08,33,5.80
2021,12,02,08,34,5.80
2021,12,02,08,35,5.80
2021,12,02,08,36,5.80
2021,12,02,08,37,5.80
2021,12,02,08,38,5.80
2021,12,02,08,39,5.80
2021,12,02,08,40,5.80
2021,12,02,08,41,5.80
2021,12,02,08,42,5.80
2021,12,02,08,43,5.80
2021,12,02,08,44,5.80
2021,12,02,08,45,5.80
2021,12,02,08,46,5.80
2021,12,02,08,47,5.90
2021,12,02,08,48,5.90
2021,12,02,08,49,5.90
2021,12,02,08,50,5.90
2021,12,02,08,51,5.90
2021,12,02,08,52,5.90
2021,12,02,08,53,5.90
2021,12,02,08,54,5.90
2021,12,02,08,55,5.90
2021,12,02,08,56,5.90
2021,12,02,08,57,5.90
2021,12,02,08,58,5.90
2021,12,02,08,59,5.90
2021,12,02,09,00,5.90
2021,12,02,09,01,5.90
2021,12,02,09,02,5.90
2021,12,02,09,03,5.90
2021,12,02,09,04,5.90
2021,12,02,09,05,5.90
2021,12,02,09,06,5.90
2021,12,02,09,07,5.90
2021,12,02,09,08,5.90
2021,12,02,09,09,5.90
2021,12,02,09,10,5.90
2021,12,02,09,11,5.90
2021,12,02,09,12,5.90
2021,12,02,09,13,5.90
2021,12,02,09,14,5.90
2021,12,02,09,15,5.90
2021,12,02,09,16,5.90
2021,12,02,09,17,5.90
2021,12,02,09,18,5.90
2021,12,02,09,19,5.90
2021,12,02,09,20,5.90
2021,12,02,09,21,5.90
2021,12,02,09,22,6.00
2021,12,02,09,23,6.00
2021,12,02,09,24,6.00
2021,12,02,09,25,6.00
2021,12,02,09,26,6.00
2021,12,02,09,27,6.00
2021,12,02,09,28,6.00
2021,12,02,09,29,6.00
2021,12,02,09,30,6.00
2021,12,02,09,31,6.00
2021,12,02,09,32,6.00
2021,12,02,09,33,6.00
2021,12,02,09,34,6.00
2021,12,02,09,35,6.00
2021,12,02,09,36,6.00
2021,12,02,09,37,6.10
2021,12,02,09,38,6.10
2021,12,02,09,39,6.10
2021,12,02,09,40,6.10
2021,12,02,09,41,6.10
2021,12,02,09,42,6.10
2021,12,02,09,43,6.10
2021,12,02,09,44,6.10
2021,12,02,09,45,6.10
2021,12,02,09,46,6.10
2021,12,02,09,47,6.10
2021,12,02,09,48,6.10
2021,12,02,09,49,6.10
2021,12,02,09,50,6.10
2021,12,02,09,51,6.10
2021,12,02,09,52,6.20
2021,12,02,09,53,6.20
2021,12,02,09,54,6.20
2021,12,02,09,55,6.20
2021,12,02,09,56,6.20
2021,12,02,09,57,6.20
2021,12,02,09,58,6.20
2021,12,02,09,59,6.20
2021,12,02,10,00,6.20
2021,12,02,10,01,6.20
2021,12,02,10,02,6.20
2021,12,02,10,03,6.30
2021,12,02,10,04,6.30
2021,12,02,10,05,6.30
2021,12,02,10,06,6.30
2021,12,02,10,07,6.30
2021,12,02,10,08,6.30
2021,12,02,10,09,6.30
2021,12,02,10,10,6.40
2021,12,02,10,11,6.40
2021,12,02,10,12,6.40
2021,12,02,10,13,6.40
2021,12,02,10,14,6.40
2021,12,02,10,15,6.40
2021,12,02,10,16,6.40
2021,12,02,10,17,6.40
2021,12,02,10,18,6.40
2021,12,02,10,19,6.40
2021,12,02,10,20,6.40
2021,12,02,10,21,6.40
2021,12,02,10,22,6.40
2021,12,02,10,23,6.40
2021,12,02,10,24,6.40
2021,12,02,10,25,6.40
2021,12,02,10,26,6.40
2021,12,02,10,27,6.40
2021,12,02,10,28,6.40
2021,12,02,10,29,6.50
2021,12,02,10,30,6.40
2021,12,02,10,31,6.50
2021,12,02,10,32,6.40
2021,12,02,10,33,6.50
2021,12,02,10,34,6.50
2021,12,02,10,35,6.50
2021,12,02,10,36,6.50
2021,12,02,10,37,6.60
2021,12,02,10,38,6.60
2021,12,02,10,39,6.60
2021,12,02,10,40,6.60
2021,12,02,10,41,6.60
2021,12,02,10,42,6.60
2021,12,02,10,43,6.60
2021,12,02,10,44,6.70
2021,12,02,10,45,6.70
2021,12,02,10,46,6.70
2021,12,02,10,47,6.70
2021,12,02,10,48,6.70
2021,12,02,10,49,6.70
2021,12,02,10,50,6.70
2021,12,02,10,51,6.70
2021,12,02,10,52,6.70
2021,12,02,10,53,6.70
2021,12,02,10,54,6.70
2021,12,02,10,55,6.70
2021,12,02,10,56,6.70
2021,12,02,10,57,6.70
2021,12,02,10,58,6.70
2021,12,02,10,59,6.70
2021,12,02,11,00,6.70
2021,12,02,11,01,6.70
2021,12,02,11,02,6.70
2021,12,02,11,03,6.60
2021,12,02,11,04,6.60
2021,12,02,11,05,6.60
2021,12,02,11,06,6.60
2021,12,02,11,07,6.60
2021,12,02,11,08,6.60
2021,12,02,11,09,6.60
2021,12,02,11,10,6.60
2021,12,02,11,11,6.60
2021,12,02,11,12,6.60
2021,12,02,11,13,6.60
2021,12,02,11,14,6.60
2021,12,02,11,15,6.70
2021,12,02,11,16,6.70
2021,12,02,11,17,6.70
2021,12,02,11,18,6.80
2021,12,02,11,19,6.80
2021,12,02,11,20,6.80
2021,12,02,11,21,6.80
2021,12,02,11,22,6.90
2021,12,02,11,23,6.80
2021,12,02,11,24,6.80
2021,12,02,11,25,6.80
2021,12,02,11,26,6.80
2021,12,02,11,27,6.80
2021,12,02,11,28,6.70
2021,12,02,11,29,6.70
2021,12,02,11,30,6.70
2021,12,02,11,31,6.70
2021,12,02,11,32,6.60
2021,12,02,11,33,6.60
2021,12,02,11,34,6.60
2021,12,02,11,35,6.60
2021,12,02,11,36,6.60
2021,12,02,11,37,6.60
2021,12,02,11,38,6.60
2021,12,02,11,39,6.60
2021,12,02,11,40,6.60
2021,12,02,11,41,6.60
2021,12,02,11,42,6.60
2021,12,02,11,43,6.70
2021,12,02,11,44,6.70
2021,12,02,11,45,6.70
2021,12,02,11,46,6.80
2021,12,02,11,47,6.80
2021,12,02,11,48,6.80
2021,12,02,11,49,6.80
2021,12,02,11,50,6.80
2021,12,02,11,51,6.90
2021,12,02,11,52,6.90
2021,12,02,11,53,7.00
2021,12,02,11,54,7.00
2021,12,02,11,55,7.10
2021,12,02,11,56,7.20
2021,12,02,11,57,7.20
2021,12,02,11,58,7.20
2021,12,02,11,59,7.20
2021,12,02,12,00,7.20
2021,12,02,12,01,7.20
2021,12,02,12,02,7.20
2021,12,02,12,03,7.20
2021,12,02,12,04,7.10
2021,12,02,12,05,7.10
2021,12,02,12,06,7.10
2021,12,02,12,07,7.10
2021,12,02,12,08,7.20
2021,12,02,12,09,7.20
2021,12,02,12,10,7.20
2021,12,02,12,11,7.20
2021,12,02,12,12,7.20
2021,12,02,12,13,7.20
2021,12,02,12,14,7.20
2021,12,02,12,15,7.20
2021,12,02,12,16,7.20
2021,12,02,12,17,7.20
2021,12,02,12,18,7.20
2021,12,02,12,19,7.20
2021,12,02,12,20,7.30
2021,12,02,12,21,7.30
2021,12,02,12,22,7.30
2021,12,02,12,23,7.30
2021,12,02,12,24,7.40
2021,12,02,12,25,7.40
2021,12,02,12,26,7.40
2021,12,02,12,27,7.40
2021,12,02,12,28,7.40
2021,12,02,12,29,7.40
2021,12,02,12,30,7.40
2021,12,02,12,31,7.30
2021,12,02,12,32,7.30
2021,12,02,12,33,7.30
2021,12,02,12,34,7.30
2021,12,02,12,35,7.30
2021,12,02,12,36,7.30
2021,12,02,12,37,7.30
2021,12,02,12,38,7.30
2021,12,02,12,39,7.30
2021,12,02,12,40,7.40
2021,12,02,12,41,7.40
2021,12,02,12,42,7.50
2021,12,02,12,43,7.50
2021,12,02,12,44,7.50
2021,12,02,12,45,7.60
2021,12,02,12,46,7.60
2021,12,02,12,47,7.60
2021,12,02,12,48,7.70
2021,12,02,12,49,7.70
2021,12,02,12,50,7.80
2021,12,02,12,51,7.80
2021,12,02,12,52,7.80
2021,12,02,12,53,7.80
2021,12,02,12,54,7.70
2021,12,02,12,55,7.70
2021,12,02,12,56,7.70
2021,12,02,12,57,7.70
2021,12,02,12,58,7.80
2021,12,02,12,59,7.80
2021,12,02,13,00,7.80
2021,12,02,13,01,7.90
2021,12,02,13,02,7.90
2021,12,02,13,03,7.90
2021,12,02,13,04,7.90
2021,12,02,13,05,7.90
2021,12,02,13,06,7.90
2021,12,02,13,07,7.90
2021,12,02,13,08,7.90
2021,12,02,13,09,7.90
2021,12,02,13,10,7.90
2021,12,02,13,11,7.90
2021,12,02,13,12,7.90
2021,12,02,13,13,7.90
2021,12,02,13,14,7.90
2021,12,02,13,15,7.90
2021,12,02,13,16,7.90
2021,12,02,13,17,7.90
2021,12,02,13,18,7.90
2021,12,02,13,19,7.90
2021,12,02,13,20,7.80
2021,12,02,13,21,7.80
2021,12,02,13,22,7.80
2021,12,02,13,23,7.70
2021,12,02,13,24,7.70
2021,12,02,13,25,7.60
2021,12,02,13,26,7.60
2021,12,02,13,27,7.60
2021,12,02,13,28,7.50
2021,12,02,13,29,7.50
2021,12,02,13,30,7.50
2021,12,02,13,31,7.50
2021,12,02,13,32,7.50
2021,12,02,13,33,7.50
2021,12,02,13,34,7.50
2021,12,02,13,35,7.50
2021,12,02,13,36,7.50
2021,12,02,13,37,7.50
2021,12,02,13,38,7.60
2021,12,02,13,39,7.60
2021,12,02,13,40,7.60
2021,12,02,13,41,7.60
2021,12,02,13,42,7.60
2021,12,02,13,43,7.60
2021,12,02,13,44,7.60
2021,12,02,13,45,7.70
2021,12,02,13,46,7.70
2021,12,02,13,47,7.70
2021,12,02,13,48,7.70
2021,12,02,13,49,7.70
2021,12,02,13,50,7.70
2021,12,02,13,51,7.70
2021,12,02,13,52,7.80
2021,12,02,13,53,7.80
2021,12,02,13,54,7.80
2021,12,02,13,55,7.90
2021,12,02,13,56,7.90
2021,12,02,13,57,7.90
2021,12,02,13,58,7.90
2021,12,02,13,59,7.90
2021,12,02,14,00,7.90
2021,12,02,14,01,7.90
2021,12,02,14,02,7.90
2021,12,02,14,03,7.90
2021,12,02,14,04,7.90
2021,12,02,14,05,7.90
2021,12,02,14,06,7.90
2021,12,02,14,07,7.90
2021,12,02,14,08,7.90
2021,12,02,14,09,7.90
2021,12,02,14,10,7.90
2021,12,02,14,11,8.00
2021,12,02,14,12,7.90
2021,12,02,14,13,7.90
2021,12,02,14,14,7.90
2021,12,02,14,15,7.90
2021,12,02,14,16,7.90
2021,12,02,14,17,7.90
2021,12,02,14,18,7.90
2021,12,02,14,19,7.90
2021,12,02,14,20,7.90
2021,12,02,14,21,7.90
2021,12,02,14,22,8.00
2021,12,02,14,23,8.00
2021,12,02,14,24,8.00
2021,12,02,14,25,8.00
2021,12,02,14,26,8.00
2021,12,02,14,27,8.00
2021,12,02,14,28,8.00
2021,12,02,14,29,8.00
2021,12,02,14,30,8.00
2021,12,02,14,31,7.90
2021,12,02,14,32,7.90
2021,12,02,14,33,8.00
2021,12,02,14,34,8.00
2021,12,02,14,35,8.00
2021,12,02,14,36,8.00
2021,12,02,14,37,7.90
2021,12,02,14,38,7.90
2021,12,02,14,39,7.90
2021,12,02,14,40,7.90
2021,12,02,14,41,7.90
2021,12,02,14,42,8.00
2021,12,02,14,43,8.00
2021,12,02,14,44,8.00
2021,12,02,14,45,8.00
2021,12,02,14,46,8.00
2021,12,02,14,47,8.00
2021,12,02,14,48,8.00
2021,12,02,14,49,8.00
2021,12,02,14,50,8.00
2021,12,02,14,51,8.00
2021,12,02,14,52,7.90
2021,12,02,14,53,7.90
2021,12,02,14,54,7.80
2021,12,02,14,55,7.80
2021,12,02,14,56,7.80
2021,12,02,14,57,7.70
2021,12,02,14,58,7.70
2021,12,02,14,59,7.70
2021,12,02,15,00,7.60
2021,12,02,15,01,7.60
2021,12,02,15,02,7.60
2021,12,02,15,03,7.50
2021,12,02,15,04,7.50
2021,12,02,15,05,7.40
2021,12,02,15,06,7.40
2021,12,02,15,07,7.30
2021,12,02,15,08,7.30
2021,12,02,15,09,7.20
2021,12,02,15,10,7.20
2021,12,02,15,11,7.20
2021,12,02,15,12,7.10
2021,12,02,15,13,7.10
2021,12,02,15,14,7.10
2021,12,02,15,15,7.00
2021,12,02,15,16,7.00
2021,12,02,15,17,6.90
2021,12,02,15,18,6.90
2021,12,02,15,19,6.90
2021,12,02,15,20,6.90
2021,12,02,15,21,6.80
2021,12,02,15,22,6.80
2021,12,02,15,23,6.80
2021,12,02,15,24,6.80
2021,12,02,15,25,6.80
2021,12,02,15,26,6.70
2021,12,02,15,27,6.70
2021,12,02,15,28,6.70
2021,12,02,15,29,6.70
2021,12,02,15,30,6.70
2021,12,02,15,31,6.60
2021,12,02,15,32,6.60
2021,12,02,15,33,6.60
2021,12,02,15,34,6.60
2021,12,02,15,35,6.60
2021,12,02,15,36,6.60
2021,12,02,15,37,6.60
2021,12,02,15,38,6.50
2021,12,02,15,39,6.50
2021,12,02,15,40,6.50
2021,12,02,15,41,6.50
2021,12,02,15,42,6.50
2021,12,02,15,43,6.50
2021,12,02,15,44,6.40
2021,12,02,15,45,6.40
2021,12,02,15,46,6.40
2021,12,02,15,47,6.40
2021,12,02,15,48,6.40
2021,12,02,15,49,6.40
2021,12,02,15,50,6.40
2021,12,02,15,51,6.30
2021,12,02,15,52,6.30
2021,12,02,15,53,6.30
2021,12,02,15,54,6.30
2021,12,02,15,55,6.20
2021,12,02,15,56,6.20
2021,12,02,15,57,6.20
2021,12,02,15,58,6.10
2021,12,02,15,59,6.10
2021,12,02,16,00,6.00
2021,12,02,16,01,6.00
2021,12,02,16,02,5.90
2021,12,02,16,03,5.90
2021,12,02,16,04,5.90
2021,12,02,16,05,5.80
2021,12,02,16,06,5.80
2021,12,02,16,07,5.80
2021,12,02,16,08,5.70
2021,12,02,16,09,5.70
2021,12,02,16,10,5.60
2021,12,02,16,11,5.60
2021,12,02,16,12,5.60
2021,12,02,16,13,5.60
2021,12,02,16,14,5.50
2021,12,02,16,15,5.50
2021,12,02,16,16,5.40
2021,12,02,16,17,5.40
2021,12,02,16,18,5.40
2021,12,02,16,19,5.40
2021,12,02,16,20,5.40
2021,12,02,16,21,5.30
2021,12,02,16,22,5.30
2021,12,02,16,23,5.20
2021,12,02,16,24,5.20
2021,12,02,16,25,5.20
2021,12,02,16,26,5.20
2021,12,02,16,27,5.20
2021,12,02,16,28,5.20
2021,12,02,16,29,5.20
2021,12,02,16,30,5.10
2021,12,02,16,31,5.10
2021,12,02,16,32,5.10
2021,12,02,16,33,5.00
2021,12,02,16,34,5.00
2021,12,02,16,35,4.90
2021,12,02,16,36,4.80
2021,12,02,16,37,4.80
2021,12,02,16,38,4.80
2021,12,02,16,39,4.70
2021,12,02,16,40,4.70
2021,12,02,16,41,4.70
2021,12,02,16,42,4.70
2021,12,02,16,43,4.70
2021,12,02,16,44,4.70
2021,12,02,16,45,4.70
2021,12,02,16,46,4.70
2021,12,02,16,47,4.80
2021,12,02,16,48,4.80
2021,12,02,16,49,4.80
2021,12,02,16,50,4.80
2021,12,02,16,51,4.80
2021,12,02,16,52,4.80
2021,12,02,16,53,4.80
2021,12,02,16,54,4.80
2021,12,02,16,55,4.70
2021,12,02,16,56,4.70
2021,12,02,16,57,4.60
2021,12,02,16,58,4.50
2021,12,02,16,59,4.50
2021,12,02,17,00,4.40
2021,12,02,17,01,4.30
2021,12,02,17,02,4.30
2021,12,02,17,03,4.20
2021,12,02,17,04,4.10
2021,12,02,17,05,4.10
2021,12,02,17,06,4.00
2021,12,02,17,07,4.00
2021,12,02,17,08,3.90
2021,12,02,17,09,3.90
2021,12,02,17,10,3.80
2021,12,02,17,11,3.80
2021,12,02,17,12,3.80
2021,12,02,17,13,3.80
2021,12,02,17,14,3.70
2021,12,02,17,15,3.70
2021,12,02,17,16,3.70
2021,12,02,17,17,3.60
2021,12,02,17,18,3.60
2021,12,02,17,19,3.50
2021,12,02,17,20,3.40
2021,12,02,17,21,3.40
2021,12,02,17,22,3.40
2021,12,02,17,23,3.30
2021,12,02,17,24,3.30
2021,12,02,17,25,3.30
2021,12,02,17,26,3.20
2021,12,02,17,27,3.20
2021,12,02,17,28,3.20
2021,12,02,17,29,3.20
2021,12,02,17,30,3.10
2021,12,02,17,31,3.10
2021,12,02,17,32,3.10
2021,12,02,17,33,3.00
2021,12,02,17,34,3.00
2021,12,02,17,35,3.00
2021,12,02,17,36,3.00
2021,12,02,17,37,2.90
2021,12,02,17,38,2.90
2021,12,02,17,39,2.90
2021,12,02,17,40,2.90
2021,12,02,17,41,2.80
2021,12,02,17,42,2.80
2021,12,02,17,43,2.80
2021,12,02,17,44,2.80
2021,12,02,17,45,2.80
2021,12,02,17,46,2.70
2021,12,02,17,47,2.70
2021,12,02,17,48,2.70
2021,12,02,17,49,2.70
2021,12,02,17,50,2.70
2021,12,02,17,51,2.60
2021,12,02,17,52,2.60
2021,12,02,17,53,2.60
2021,12,02,17,54,2.60
2021,12,02,17,55,2.60
2021,12,02,17,56,2.60
2021,12,02,17,57,2.60
2021,12,02,17,58,2.50
2021,12,02,17,59,2.50
2021,12,02,18,00,2.50
2021,12,02,18,01,2.50
2021,12,02,18,02,2.50
2021,12,02,18,03,2.40
2021,12,02,18,04,2.40
2021,12,02,18,05,2.40
2021,12,02,18,06,2.40